Location: ?????
(42.2640°N, 43.4211°E)
Time: 15:19:20
(UTC+00:00)

Cosmos 2084 - Pass Details

Date: 07 August 2020
Orbit: 569 x 614 km, 62.8° (Epoch: 19 September)

Event Time Altitude Azimuth Distance (km) Brightness Sun altitude
Exits shadow 01:21:39 - 202° (SSW) 2,391 6.1 -8.1°
Reaches altitude 10° 01:22:52 10° 199° (SSW) 1,916 5.6 -7.9°
Maximum altitude 01:27:06 55° 122° (ESE) 720 4.1 -7.2°
Drops below altitude 10° 01:31:26 10° 44° (NE) 1,956 7.6 -6.5°
Sets 01:33:45 0° 41° (NE) 2,869 8.5 -6.1°
